sat.trackr.live / text

‹ back to catalog

TIANPING 2C

NORAD 52156 · 2022-032D

PAYLOAD ACTIVE UNKNOWN

§ Identity

Operator
Country
PRC
Launch date
2022-03-30
Launch site
JSC
Launch vehicle
Mass (kg)
RCS (m²)

External: N2YO · Heavens-Above · Gunter

§ Orbital elements

Epoch: 2026-05-25T04:11:22.448832Z

Period
95.30 min
Inclination
97.5839°
Eccentricity
0.0005380
Mean motion
15.10962560 rev/d
Perigee alt
529.5 km
Apogee alt
537.0 km
Semi-major
6,911.4 km
B*
2.5712e-4
RAAN
197.7220°
Arg perigee
223.8581°
Mean anomaly
136.2222°
Rev number
22,737

§ Raw data

TIANPING 2C1 52156U 22032D   26145.17456538  .00004226  00000+0  25712-3 0  99982 52156  97.5839 197.7220 0005380 223.8581 136.2222 15.10962560227379

JSON: /api/v1/satellites/52156 · /tle

For live sub-satellite position, see the globe view (requires WebGL).

§ Visibility from observer

Set your observer location to see the next 7 days of passes ≥ 10°. The values pass through the URL so the page stays shareable.

No JS? Fill the form by hand. The geolocation button needs JavaScript.